Location: Aghk�ilisa
(40.0189°N, 45.0097°E)
Time: 15:13:14
(UTC+00:00)

ATLAS 5 CENTAUR R/B - Pass Details

Date: 21 October 2019
Orbit: 557 x 1102 km, 63.4° (Epoch: 11 November)

Event Time Altitude Azimuth Distance (km) Brightness Sun altitude
Rises 15:03:51 0° 279° (W) 2,839 6.7 -10.5°
Reaches altitude 10° 15:08:29 10° 325° (NW) 2,057 4.7 -11.4°
Maximum altitude 15:09:01 10° 332° (NNW) 2,061 4.6 -11.5°
Drops below altitude 10° 15:09:34 10° 338° (NNW) 2,090 4.5 -11.6°
Sets 15:14:42 0° 22° (NNE) 3,184 4.9 -12.6°
